TimeCST,TemperatureF,Dew PointF,Humidity,Sea Level PressureIn,VisibilityMPH,Wind Direction,Wind SpeedMPH,Gust SpeedMPH,PrecipitationIn,Events,Conditions,WindDirDegrees,DateUTC
12:53 AM,63.0,62.1,97,30.14,10.0,Calm,Calm,-,N/A,,Clear,0,2012-11-11 06:53:00
1:53 AM,61.0,60.1,97,30.14,10.0,Calm,Calm,-,N/A,,Clear,0,2012-11-11 07:53:00
2:53 AM,60.1,59.0,96,30.13,10.0,Calm,Calm,-,N/A,,Clear,0,2012-11-11 08:53:00
3:53 AM,68.0,63.0,84,30.13,10.0,SE,9.2,-,N/A,,Overcast,140,2012-11-11 09:53:00
4:53 AM,68.0,61.0,78,30.12,10.0,SE,12.7,-,N/A,,Clear,140,2012-11-11 10:53:00
5:53 AM,68.0,59.0,73,30.14,10.0,SSE,10.4,-,N/A,,Clear,160,2012-11-11 11:53:00
6:53 AM,68.0,57.9,70,30.15,10.0,SE,8.1,-,N/A,,Clear,140,2012-11-11 12:53:00
7:53 AM,72.0,59.0,64,30.16,10.0,SE,10.4,-,N/A,,Clear,140,2012-11-11 13:53:00
8:53 AM,75.0,62.1,64,30.17,10.0,SSE,11.5,-,N/A,,Clear,150,2012-11-11 14:53:00
11:53 AM,78.1,63.0,60,30.15,10.0,SSE,23.0,31.1,N/A,,Scattered Clouds,160,2012-11-11 17:53:00
12:53 PM,78.1,63.0,60,30.12,10.0,SE,19.6,26.5,N/A,,Scattered Clouds,140,2012-11-11 18:53:00
1:53 PM,77.0,61.0,58,30.11,10.0,SE,17.3,25.3,N/A,,Scattered Clouds,130,2012-11-11 19:53:00
2:53 PM,77.0,62.1,60,30.11,10.0,SSE,18.4,27.6,N/A,,Scattered Clouds,150,2012-11-11 20:53:00
3:53 PM,75.9,63.0,64,30.11,10.0,SE,11.5,26.5,N/A,,Clear,140,2012-11-11 21:53:00
4:53 PM,73.0,64.0,73,30.12,10.0,SE,11.5,24.2,N/A,,Overcast,140,2012-11-11 22:53:00
5:53 PM,72.0,64.0,76,30.13,10.0,SE,6.9,18.4,N/A,,Overcast,130,2012-11-11 23:53:00
6:53 PM,71.1,64.9,81,30.12,10.0,ESE,8.1,18.4,N/A,,Overcast,120,2012-11-12 00:53:00
7:53 PM,71.1,64.9,81,30.12,10.0,SE,11.5,18.4,N/A,,Partly Cloudy,130,2012-11-12 01:53:00
8:53 PM,71.1,64.0,78,30.14,10.0,SSE,10.4,-,N/A,,Scattered Clouds,150,2012-11-12 02:53:00
9:53 PM,70.0,64.9,84,30.14,10.0,SSE,8.1,-,N/A,,Mostly Cloudy,150,2012-11-12 03:53:00
10:53 PM,69.1,64.9,87,30.14,10.0,SSE,6.9,-,N/A,,Overcast,150,2012-11-12 04:53:00